[ hide orbit diagram ]
For accurate long-term ephemerides, please instead use our Horizons system.This orbit viewer was implemented using two-body methods, and hence should not be used for determining accurate long-term trajectories (over several years or decades) or planetary encounter circumstances.
[ revert to old Java-based viewer ]
Orbital Elements at Epoch 2458600.5 (2019-Apr-27.0) TDB
Reference: JPL 23 (heliocentric ecliptic J2000)
Element | Value | Uncertainty (1-sigma) | Units |
e | .1458034190547701 | 4.7666e-08 | |
a | 3.17055447744748 | 2.5203e-08 | au |
q | 2.708276794336228 | 1.5188e-07 | au |
i | 6.865422702117695 | 6.1831e-06 | deg |
node | 15.20835780594049 | 4.0388e-05 | deg |
peri | 32.80254478581223 | 4.5008e-05 | deg |
M | 334.514509277354 | 1.9441e-05 | deg |
tp | 2458746.479461108208 (2019-Sep-19.97946111) | 0.00011184 | TDB |
period | 2062.059803787 5.65 | 2.4587e-05 6.732e-08 | d yr |
n | .1745827154667654 | 2.0816e-09 | deg/d |
Q | 3.632832160558733 | 2.8877e-08 | au |
|
| | Orbit Determination Parameters
Additional Information
|
[ show covariance matrix ]
Physical Parameter Table
Parameter |
Symbol |
Value |
Units |
Sigma |
Reference |
Notes |
absolute magnitude |
H |
14.4 |
|
n/a |
MPO453281 |
|
|
85086 (3059 T-2) Discovered 1973-Sep-30 by van Houten, C. J., van Houten-Groeneveld, I., Gehrels, T. at Palomar |
Reference: 20040504/Numbers.arc | Last Updated: 2004-07-16 |
|
[ show close-approach data ]
|